Torna al catalogo

DMSP 5D-2 F13 DEB

AttivoSSO
NORAD 40498·DEBRIS·🇺🇸 United States

Lanciato Mar 24, 1995 da Vandenberg Space Force Base

Loading…

Prossimi Passaggi (prossime 24 ore)

TLE

In scadenzaSource: Space-Track

Epoca: Sep 10, 2026, 08:58 UTC

1 40498U 95015CM  26253.37366921  .00002548  00000-0  95344-3 0  9997
2 40498  98.8789 289.5691 0026214   8.2172 351.9435 14.32495688594425

Traccia DMSP 5D-2 F13 DEB in tempo reale con AllMySat

Download on the App Store